#datetime,building,power
2023-01-19T00:01:00,pth,4.80
2023-01-19T00:03:00,pth,4.80
2023-01-19T00:05:00,pth,3.60
2023-01-19T00:06:00,pth,1.20
2023-01-19T00:08:00,pth,3.60
2023-01-19T00:10:00,pth,3.60
2023-01-19T00:11:00,pth,1.20
2023-01-19T00:13:00,pth,3.60
2023-01-19T00:15:00,pth,2.40
2023-01-19T00:17:00,pth,3.60
2023-01-19T00:19:00,pth,4.80
2023-01-19T00:21:00,pth,4.80
2023-01-19T00:23:00,pth,4.80
2023-01-19T00:24:00,pth,3.60
2023-01-19T00:26:00,pth,4.80
2023-01-19T00:28:00,pth,4.80
2023-01-19T00:30:00,pth,4.80
2023-01-19T00:31:00,pth,1.20
2023-01-19T00:33:00,pth,3.60
2023-01-19T00:34:00,pth,2.40
2023-01-19T00:36:00,pth,3.60
2023-01-19T00:38:00,pth,4.80
2023-01-19T00:39:00,pth,1.20
2023-01-19T00:41:00,pth,4.80
2023-01-19T00:43:00,pth,3.60
2023-01-19T00:45:00,pth,3.60
2023-01-19T00:47:00,pth,6.00
2023-01-19T00:49:00,pth,4.80
2023-01-19T00:50:00,pth,2.40
2023-01-19T00:52:00,pth,4.80
2023-01-19T00:54:00,pth,4.80
2023-01-19T00:56:00,pth,6.00
2023-01-19T00:58:00,pth,3.60
2023-01-19T00:59:00,pth,1.20
2023-01-19T01:01:00,pth,3.60
2023-01-19T01:03:00,pth,3.60
2023-01-19T01:05:00,pth,3.60
2023-01-19T01:06:00,pth,1.20
2023-01-19T01:08:00,pth,3.60
2023-01-19T01:10:00,pth,3.60
2023-01-19T01:12:00,pth,4.80
2023-01-19T01:14:00,pth,6.00
2023-01-19T01:15:00,pth,2.40
2023-01-19T01:17:00,pth,4.80
2023-01-19T01:19:00,pth,6.00
2023-01-19T01:20:00,pth,2.40
2023-01-19T01:22:00,pth,4.80
2023-01-19T01:23:00,pth,1.20
2023-01-19T01:24:00,pth,1.20
2023-01-19T01:25:00,pth,2.40
2023-01-19T01:27:00,pth,2.40
2023-01-19T01:29:00,pth,3.60
2023-01-19T01:31:00,pth,2.40
2023-01-19T01:33:00,pth,3.60
2023-01-19T01:35:00,pth,3.60
2023-01-19T01:37:00,pth,4.80
2023-01-19T01:39:00,pth,4.80
2023-01-19T01:41:00,pth,4.80
2023-01-19T01:43:00,pth,6.00
2023-01-19T01:44:00,pth,2.40
2023-01-19T01:45:00,pth,2.40
2023-01-19T01:47:00,pth,6.00
2023-01-19T01:49:00,pth,3.60
2023-01-19T01:50:00,pth,1.20
2023-01-19T01:51:00,pth,1.20
2023-01-19T01:53:00,pth,3.60
2023-01-19T01:54:00,pth,1.20
2023-01-19T01:56:00,pth,3.60
2023-01-19T01:57:00,pth,2.40
2023-01-19T01:59:00,pth,2.40
2023-01-19T02:01:00,pth,3.60
2023-01-19T02:02:00,pth,2.40
2023-01-19T02:04:00,pth,4.80
2023-01-19T02:05:00,pth,2.40
2023-01-19T02:06:00,pth,2.40
2023-01-19T02:08:00,pth,6.00
2023-01-19T02:09:00,pth,2.40
2023-01-19T02:11:00,pth,4.80
2023-01-19T02:13:00,pth,4.80
2023-01-19T02:14:00,pth,1.20
2023-01-19T02:16:00,pth,3.60
2023-01-19T02:18:00,pth,2.40
2023-01-19T02:20:00,pth,3.60
2023-01-19T02:21:00,pth,2.40
2023-01-19T02:23:00,pth,2.40
2023-01-19T02:24:00,pth,2.40
2023-01-19T02:25:00,pth,1.20
2023-01-19T02:26:00,pth,1.20
2023-01-19T02:28:00,pth,4.80
2023-01-19T02:30:00,pth,4.80
2023-01-19T02:32:00,pth,6.00
2023-01-19T02:34:00,pth,4.80
2023-01-19T02:36:00,pth,4.80
2023-01-19T02:37:00,pth,3.60
2023-01-19T02:39:00,pth,4.80
2023-01-19T02:41:00,pth,3.60
2023-01-19T02:43:00,pth,3.60
2023-01-19T02:45:00,pth,2.40
2023-01-19T02:46:00,pth,1.20
2023-01-19T02:48:00,pth,2.40
2023-01-19T02:50:00,pth,2.40
2023-01-19T02:52:00,pth,2.40
2023-01-19T02:54:00,pth,3.60
2023-01-19T02:55:00,pth,1.20
2023-01-19T02:57:00,pth,4.80
2023-01-19T02:58:00,pth,2.40
2023-01-19T03:00:00,pth,3.60
2023-01-19T03:02:00,pth,3.60
2023-01-19T03:04:00,pth,4.80
2023-01-19T03:06:00,pth,2.40
2023-01-19T03:08:00,pth,2.40
2023-01-19T03:10:00,pth,2.40
2023-01-19T03:12:00,pth,2.40
2023-01-19T03:14:00,pth,1.20
2023-01-19T03:15:00,pth,1.20
2023-01-19T03:16:00,pth,1.20
2023-01-19T03:18:00,pth,2.40
2023-01-19T03:20:00,pth,2.40
2023-01-19T03:22:00,pth,3.60
2023-01-19T03:23:00,pth,2.40
2023-01-19T03:25:00,pth,3.60
2023-01-19T03:26:00,pth,1.20
2023-01-19T03:28:00,pth,4.80
2023-01-19T03:30:00,pth,3.60
2023-01-19T03:32:00,pth,2.40
2023-01-19T03:34:00,pth,1.20
2023-01-19T03:35:00,pth,1.20
2023-01-19T03:37:00,pth,1.20
2023-01-19T03:38:00,pth,1.20
2023-01-19T03:40:00,pth,2.40
2023-01-19T03:41:00,pth,1.20
2023-01-19T03:43:00,pth,1.20
2023-01-19T03:45:00,pth,3.60
2023-01-19T03:47:00,pth,3.60
2023-01-19T03:49:00,pth,3.60
2023-01-19T03:50:00,pth,2.40
2023-01-19T03:52:00,pth,3.60
2023-01-19T03:54:00,pth,3.60
2023-01-19T03:55:00,pth,2.40
2023-01-19T03:56:00,pth,1.20
2023-01-19T03:58:00,pth,2.40
2023-01-19T03:59:00,pth,1.20
2023-01-19T04:00:00,pth,1.20
2023-01-19T04:02:00,pth,1.20
2023-01-19T04:04:00,pth,2.40
2023-01-19T04:05:00,pth,1.20
2023-01-19T04:06:00,pth,1.20
2023-01-19T04:08:00,pth,1.20
2023-01-19T04:10:00,pth,2.40
2023-01-19T04:12:00,pth,3.60
2023-01-19T04:14:00,pth,4.80
2023-01-19T04:16:00,pth,3.60
2023-01-19T04:18:00,pth,3.60
2023-01-19T04:19:00,pth,2.40
2023-01-19T04:21:00,pth,3.60
2023-01-19T04:22:00,pth,2.40
2023-01-19T04:24:00,pth,2.40
2023-01-19T04:26:00,pth,1.20
2023-01-19T04:27:00,pth,1.20
2023-01-19T04:29:00,pth,2.40
2023-01-19T04:31:00,pth,2.40
2023-01-19T04:33:00,pth,1.20
2023-01-19T04:35:00,pth,2.40
2023-01-19T04:37:00,pth,3.60
2023-01-19T04:39:00,pth,4.80
2023-01-19T04:40:00,pth,1.20
2023-01-19T04:42:00,pth,4.80
2023-01-19T04:44:00,pth,3.60
2023-01-19T04:45:00,pth,2.40
2023-01-19T04:46:00,pth,1.20
2023-01-19T04:48:00,pth,4.80
2023-01-19T04:49:00,pth,1.20
2023-01-19T04:50:00,pth,1.20
2023-01-19T04:52:00,pth,2.40
2023-01-19T04:53:00,pth,1.20
2023-01-19T04:55:00,pth,2.40
2023-01-19T04:57:00,pth,1.20
2023-01-19T04:59:00,pth,2.40
2023-01-19T05:00:00,pth,1.20
2023-01-19T05:02:00,pth,2.40
2023-01-19T05:03:00,pth,1.20
2023-01-19T05:04:00,pth,2.40
2023-01-19T05:06:00,pth,4.80
2023-01-19T05:07:00,pth,1.20
2023-01-19T05:08:00,pth,2.40
2023-01-19T05:10:00,pth,4.80
2023-01-19T05:11:00,pth,1.20
2023-01-19T05:13:00,pth,4.80
2023-01-19T05:15:00,pth,4.80
2023-01-19T05:17:00,pth,2.40
2023-01-19T05:19:00,pth,1.20
2023-01-19T05:21:00,pth,2.40
2023-01-19T05:23:00,pth,2.40
2023-01-19T05:24:00,pth,1.20
2023-01-19T05:27:00,pth,2.40
2023-01-19T05:28:00,pth,1.20
2023-01-19T05:29:00,pth,1.20
2023-01-19T05:30:00,pth,2.40
2023-01-19T05:32:00,pth,3.60
2023-01-19T05:34:00,pth,3.60
2023-01-19T05:36:00,pth,4.80
2023-01-19T05:38:00,pth,3.60
2023-01-19T05:39:00,pth,2.40
2023-01-19T05:41:00,pth,3.60
2023-01-19T05:43:00,pth,2.40
2023-01-19T05:44:00,pth,1.20
2023-01-19T05:46:00,pth,2.40
2023-01-19T05:48:00,pth,2.40
2023-01-19T05:50:00,pth,3.60
2023-01-19T05:51:00,pth,2.40
2023-01-19T05:52:00,pth,2.40
2023-01-19T05:54:00,pth,6.00
2023-01-19T05:56:00,pth,7.20
2023-01-19T05:57:00,pth,3.60
2023-01-19T05:59:00,pth,6.00
2023-01-19T06:01:00,pth,6.00
2023-01-19T06:02:00,pth,3.60
2023-01-19T06:03:00,pth,1.20
2023-01-19T06:05:00,pth,4.80
2023-01-19T06:07:00,pth,3.60
2023-01-19T06:08:00,pth,1.20
2023-01-19T06:10:00,pth,2.40
2023-01-19T06:12:00,pth,2.40
2023-01-19T06:14:00,pth,2.40
2023-01-19T06:15:00,pth,1.20
2023-01-19T06:17:00,pth,2.40
2023-01-19T06:19:00,pth,3.60
2023-01-19T06:21:00,pth,3.60
2023-01-19T06:23:00,pth,6.00
2023-01-19T06:24:00,pth,2.40
2023-01-19T06:26:00,pth,6.00
2023-01-19T06:28:00,pth,6.00
2023-01-19T06:29:00,pth,2.40
2023-01-19T06:31:00,pth,6.00
2023-01-19T06:33:00,pth,3.60
2023-01-19T06:35:00,pth,3.60
2023-01-19T06:37:00,pth,2.40
2023-01-19T06:38:00,pth,1.20
2023-01-19T06:40:00,pth,3.60
2023-01-19T06:41:00,pth,2.40
2023-01-19T06:43:00,pth,2.40
2023-01-19T06:44:00,pth,1.20
2023-01-19T06:45:00,pth,2.40
2023-01-19T06:47:00,pth,4.80
2023-01-19T06:49:00,pth,4.80
2023-01-19T06:51:00,pth,4.80
2023-01-19T06:53:00,pth,6.00
2023-01-19T06:55:00,pth,4.80
2023-01-19T06:57:00,pth,6.00
2023-01-19T06:59:00,pth,3.60
2023-01-19T07:01:00,pth,3.60
2023-01-19T07:03:00,pth,3.60
2023-01-19T07:05:00,pth,2.40
2023-01-19T07:07:00,pth,3.60
2023-01-19T07:09:00,pth,3.60
2023-01-19T07:11:00,pth,3.60
2023-01-19T07:12:00,pth,2.40
2023-01-19T07:14:00,pth,6.00
2023-01-19T07:15:00,pth,2.40
2023-01-19T07:16:00,pth,2.40
2023-01-19T07:18:00,pth,6.00
2023-01-19T07:20:00,pth,4.80
2023-01-19T07:22:00,pth,6.00
2023-01-19T07:24:00,pth,2.40
2023-01-19T07:25:00,pth,2.40
2023-01-19T07:26:00,pth,1.20
2023-01-19T07:28:00,pth,3.60
2023-01-19T07:30:00,pth,2.40
2023-01-19T07:31:00,pth,1.20
2023-01-19T07:32:00,pth,2.40
2023-01-19T07:34:00,pth,2.40
2023-01-19T07:36:00,pth,4.80
2023-01-19T07:38:00,pth,4.80
2023-01-19T07:39:00,pth,3.60
2023-01-19T07:41:00,pth,4.80
2023-01-19T07:43:00,pth,6.00
2023-01-19T07:44:00,pth,3.60
2023-01-19T07:46:00,pth,4.80
2023-01-19T07:47:00,pth,3.60
2023-01-19T07:49:00,pth,4.80
2023-01-19T07:51:00,pth,4.80
2023-01-19T07:53:00,pth,3.60
2023-01-19T07:55:00,pth,3.60
2023-01-19T07:56:00,pth,1.20
2023-01-19T07:58:00,pth,3.60
2023-01-19T07:59:00,pth,1.20
2023-01-19T08:01:00,pth,3.60
2023-01-19T08:02:00,pth,1.20
2023-01-19T08:04:00,pth,6.00
2023-01-19T08:06:00,pth,4.80
2023-01-19T08:08:00,pth,6.00
2023-01-19T08:10:00,pth,6.00
2023-01-19T08:12:00,pth,4.80
2023-01-19T08:14:00,pth,4.80
2023-01-19T08:15:00,pth,2.40
2023-01-19T08:17:00,pth,3.60
2023-01-19T08:18:00,pth,2.40
2023-01-19T08:20:00,pth,3.60
2023-01-19T08:22:00,pth,3.60
2023-01-19T08:24:00,pth,2.40
2023-01-19T08:25:00,pth,2.40
2023-01-19T08:26:00,pth,1.20
2023-01-19T08:28:00,pth,3.60
2023-01-19T08:30:00,pth,6.00
2023-01-19T08:32:00,pth,4.80
2023-01-19T08:34:00,pth,4.80
2023-01-19T08:36:00,pth,4.80
2023-01-19T08:37:00,pth,3.60
2023-01-19T08:39:00,pth,4.80
2023-01-19T08:41:00,pth,3.60
2023-01-19T08:43:00,pth,3.60
2023-01-19T08:44:00,pth,1.20
2023-01-19T08:45:00,pth,2.40
2023-01-19T08:47:00,pth,2.40
2023-01-19T08:49:00,pth,3.60
2023-01-19T08:51:00,pth,3.60
2023-01-19T08:52:00,pth,1.20
2023-01-19T08:54:00,pth,3.60
2023-01-19T08:56:00,pth,4.80
2023-01-19T08:57:00,pth,2.40
2023-01-19T08:59:00,pth,8.40
2023-01-19T09:01:00,pth,10.80
2023-01-19T09:03:00,pth,9.60
2023-01-19T09:05:00,pth,9.60
2023-01-19T09:06:00,pth,4.80
2023-01-19T09:08:00,pth,8.40
2023-01-19T09:09:00,pth,3.60
2023-01-19T09:11:00,pth,8.40
2023-01-19T09:12:00,pth,3.60
2023-01-19T09:13:00,pth,3.60
2023-01-19T09:15:00,pth,6.00
2023-01-19T09:16:00,pth,1.20
2023-01-19T09:18:00,pth,4.80
2023-01-19T09:20:00,pth,9.60
2023-01-19T09:22:00,pth,8.40
2023-01-19T09:24:00,pth,9.60
2023-01-19T09:26:00,pth,9.60
2023-01-19T09:27:00,pth,4.80
2023-01-19T09:29:00,pth,9.60
2023-01-19T09:30:00,pth,4.80
2023-01-19T09:31:00,pth,6.00
2023-01-19T09:33:00,pth,9.60
2023-01-19T09:35:00,pth,7.20
2023-01-19T09:37:00,pth,8.40
2023-01-19T09:39:00,pth,2.40
2023-01-19T09:41:00,pth,4.80
2023-01-19T09:43:00,pth,7.20
2023-01-19T09:45:00,pth,8.40
2023-01-19T09:47:00,pth,8.40
2023-01-19T09:48:00,pth,4.80
2023-01-19T09:50:00,pth,7.20
2023-01-19T09:51:00,pth,2.40
2023-01-19T09:53:00,pth,7.20
2023-01-19T09:55:00,pth,8.40
2023-01-19T09:56:00,pth,8.40
2023-01-19T09:57:00,pth,2.40
2023-01-19T09:58:00,pth,4.80
2023-01-19T10:00:00,pth,3.60
2023-01-19T10:02:00,pth,2.40
2023-01-19T10:04:00,pth,2.40
2023-01-19T10:06:00,pth,3.60
2023-01-19T10:07:00,pth,1.20
2023-01-19T10:08:00,pth,1.20
2023-01-19T10:10:00,pth,2.40
2023-01-19T10:12:00,pth,3.60
2023-01-19T10:13:00,pth,1.20
2023-01-19T10:15:00,pth,4.80
2023-01-19T10:17:00,pth,3.60
2023-01-19T10:19:00,pth,4.80
2023-01-19T10:21:00,pth,4.80
2023-01-19T10:23:00,pth,4.80
2023-01-19T10:25:00,pth,3.60
2023-01-19T10:26:00,pth,1.20
2023-01-19T10:28:00,pth,3.60
2023-01-19T10:30:00,pth,2.40
2023-01-19T10:32:00,pth,2.40
2023-01-19T10:33:00,pth,1.20
2023-01-19T10:35:00,pth,2.40
2023-01-19T10:37:00,pth,2.40
2023-01-19T10:38:00,pth,1.20
2023-01-19T10:40:00,pth,4.80
2023-01-19T10:41:00,pth,2.40
2023-01-19T10:43:00,pth,4.80
2023-01-19T10:44:00,pth,2.40
2023-01-19T10:46:00,pth,4.80
2023-01-19T10:48:00,pth,4.80
2023-01-19T10:50:00,pth,4.80
2023-01-19T10:52:00,pth,3.60
2023-01-19T10:53:00,pth,2.40
2023-01-19T10:55:00,pth,2.40
2023-01-19T10:57:00,pth,2.40
2023-01-19T10:59:00,pth,2.40
2023-01-19T11:01:00,pth,3.60
2023-01-19T11:03:00,pth,2.40
2023-01-19T11:05:00,pth,2.40
2023-01-19T11:06:00,pth,1.20
2023-01-19T11:08:00,pth,4.80
2023-01-19T11:09:00,pth,2.40
2023-01-19T11:11:00,pth,4.80
2023-01-19T11:13:00,pth,4.80
2023-01-19T11:15:00,pth,3.60
2023-01-19T11:17:00,pth,4.80
2023-01-19T11:18:00,pth,2.40
2023-01-19T11:20:00,pth,2.40
2023-01-19T11:22:00,pth,3.60
2023-01-19T11:24:00,pth,2.40
2023-01-19T11:26:00,pth,3.60
2023-01-19T11:28:00,pth,2.40
2023-01-19T11:29:00,pth,2.40
2023-01-19T11:31:00,pth,2.40
2023-01-19T11:32:00,pth,2.40
2023-01-19T11:34:00,pth,4.80
2023-01-19T11:35:00,pth,2.40
2023-01-19T11:37:00,pth,4.80
2023-01-19T11:39:00,pth,4.80
2023-01-19T11:40:00,pth,2.40
2023-01-19T11:42:00,pth,4.80
2023-01-19T11:44:00,pth,3.60
2023-01-19T11:45:00,pth,1.20
2023-01-19T11:47:00,pth,3.60
2023-01-19T11:49:00,pth,2.40
2023-01-19T11:50:00,pth,2.40
2023-01-19T11:52:00,pth,3.60
2023-01-19T11:53:00,pth,1.20
2023-01-19T11:55:00,pth,3.60
2023-01-19T11:56:00,pth,1.20
2023-01-19T11:57:00,pth,1.20
2023-01-19T11:59:00,pth,6.00
2023-01-19T12:00:00,pth,2.40
2023-01-19T12:01:00,pth,2.40
2023-01-19T12:02:00,pth,2.40
2023-01-19T12:04:00,pth,4.80
2023-01-19T12:06:00,pth,4.80
2023-01-19T12:08:00,pth,4.80
2023-01-19T12:10:00,pth,3.60
2023-01-19T12:11:00,pth,1.20
2023-01-19T12:13:00,pth,3.60
2023-01-19T12:14:00,pth,1.20
2023-01-19T12:15:00,pth,1.20
2023-01-19T12:17:00,pth,2.40
2023-01-19T12:19:00,pth,2.40
2023-01-19T12:20:00,pth,2.40
2023-01-19T12:21:00,pth,1.20
2023-01-19T12:22:00,pth,1.20
2023-01-19T12:24:00,pth,4.80
2023-01-19T12:25:00,pth,2.40
2023-01-19T12:27:00,pth,3.60
2023-01-19T12:29:00,pth,4.80
2023-01-19T12:30:00,pth,2.40
2023-01-19T12:32:00,pth,4.80
2023-01-19T12:34:00,pth,6.00
2023-01-19T12:35:00,pth,2.40
2023-01-19T12:37:00,pth,3.60
2023-01-19T12:39:00,pth,2.40
2023-01-19T12:41:00,pth,2.40
2023-01-19T12:43:00,pth,3.60
2023-01-19T12:45:00,pth,3.60
2023-01-19T12:46:00,pth,1.20
2023-01-19T12:48:00,pth,3.60
2023-01-19T12:50:00,pth,6.00
2023-01-19T12:52:00,pth,4.80
2023-01-19T12:53:00,pth,2.40
2023-01-19T12:54:00,pth,2.40
2023-01-19T12:55:00,pth,2.40
2023-01-19T12:57:00,pth,4.80
2023-01-19T12:58:00,pth,2.40
2023-01-19T12:59:00,pth,2.40
2023-01-19T13:01:00,pth,3.60
2023-01-19T13:02:00,pth,2.40
2023-01-19T13:04:00,pth,2.40
2023-01-19T13:06:00,pth,2.40
2023-01-19T13:08:00,pth,3.60
2023-01-19T13:10:00,pth,2.40
2023-01-19T13:12:00,pth,3.60
2023-01-19T13:13:00,pth,1.20
2023-01-19T13:15:00,pth,6.00
2023-01-19T13:17:00,pth,3.60
2023-01-19T13:18:00,pth,2.40
2023-01-19T13:20:00,pth,4.80
2023-01-19T13:21:00,pth,2.40
2023-01-19T13:22:00,pth,1.20
2023-01-19T13:24:00,pth,4.80
2023-01-19T13:26:00,pth,4.80
2023-01-19T13:27:00,pth,1.20
2023-01-19T13:29:00,pth,3.60
2023-01-19T13:30:00,pth,1.20
2023-01-19T13:32:00,pth,3.60
2023-01-19T13:34:00,pth,2.40
2023-01-19T13:35:00,pth,1.20
2023-01-19T13:37:00,pth,2.40
2023-01-19T13:38:00,pth,2.40
2023-01-19T13:39:00,pth,1.20
2023-01-19T13:41:00,pth,4.80
2023-01-19T13:43:00,pth,4.80
2023-01-19T13:44:00,pth,2.40
2023-01-19T13:46:00,pth,4.80
2023-01-19T13:47:00,pth,2.40
2023-01-19T13:49:00,pth,4.80
2023-01-19T13:51:00,pth,4.80
2023-01-19T13:53:00,pth,2.40
2023-01-19T13:55:00,pth,2.40
2023-01-19T13:56:00,pth,1.20
2023-01-19T13:58:00,pth,3.60
2023-01-19T13:59:00,pth,1.20
2023-01-19T14:01:00,pth,3.60
2023-01-19T14:02:00,pth,1.20
2023-01-19T14:04:00,pth,2.40
2023-01-19T14:06:00,pth,4.80
2023-01-19T14:07:00,pth,2.40
2023-01-19T14:09:00,pth,4.80
2023-01-19T14:11:00,pth,3.60
2023-01-19T14:13:00,pth,6.00
2023-01-19T14:15:00,pth,4.80
2023-01-19T14:16:00,pth,1.20
2023-01-19T14:17:00,pth,2.40
2023-01-19T14:19:00,pth,2.40
2023-01-19T14:21:00,pth,2.40
2023-01-19T14:23:00,pth,2.40
2023-01-19T14:24:00,pth,2.40
2023-01-19T14:25:00,pth,1.20
2023-01-19T14:27:00,pth,2.40
2023-01-19T14:28:00,pth,1.20
2023-01-19T14:30:00,pth,3.60
2023-01-19T14:31:00,pth,2.40
2023-01-19T14:32:00,pth,2.40
2023-01-19T14:34:00,pth,4.80
2023-01-19T14:35:00,pth,1.20
2023-01-19T14:37:00,pth,6.00
2023-01-19T14:39:00,pth,4.80
2023-01-19T14:40:00,pth,2.40
2023-01-19T14:42:00,pth,2.40
2023-01-19T14:44:00,pth,2.40
2023-01-19T14:45:00,pth,2.40
2023-01-19T14:46:00,pth,1.20
2023-01-19T14:48:00,pth,2.40
2023-01-19T14:50:00,pth,2.40
2023-01-19T14:51:00,pth,1.20
2023-01-19T14:53:00,pth,2.40
2023-01-19T14:55:00,pth,3.60
2023-01-19T14:56:00,pth,2.40
2023-01-19T14:58:00,pth,4.80
2023-01-19T14:59:00,pth,2.40
2023-01-19T15:00:00,pth,2.40
2023-01-19T15:02:00,pth,3.60
2023-01-19T15:04:00,pth,4.80
2023-01-19T15:05:00,pth,2.40
2023-01-19T15:07:00,pth,2.40
2023-01-19T15:09:00,pth,3.60
2023-01-19T15:11:00,pth,1.20
2023-01-19T15:13:00,pth,3.60
2023-01-19T15:14:00,pth,1.20
2023-01-19T15:15:00,pth,1.20
2023-01-19T15:17:00,pth,2.40
2023-01-19T15:18:00,pth,1.20
2023-01-19T15:19:00,pth,1.20
2023-01-19T15:21:00,pth,4.80
2023-01-19T15:22:00,pth,2.40
2023-01-19T15:24:00,pth,4.80
2023-01-19T15:25:00,pth,2.40
2023-01-19T15:27:00,pth,3.60
2023-01-19T15:28:00,pth,2.40
2023-01-19T15:29:00,pth,2.40
2023-01-19T15:31:00,pth,3.60
2023-01-19T15:32:00,pth,1.20
2023-01-19T15:34:00,pth,2.40
2023-01-19T15:35:00,pth,1.20
2023-01-19T15:37:00,pth,2.40
2023-01-19T15:39:00,pth,2.40
2023-01-19T15:41:00,pth,3.60
2023-01-19T15:42:00,pth,1.20
2023-01-19T15:44:00,pth,2.40
2023-01-19T15:45:00,pth,2.40
2023-01-19T15:47:00,pth,4.80
2023-01-19T15:48:00,pth,2.40
2023-01-19T15:49:00,pth,2.40
2023-01-19T15:51:00,pth,3.60
2023-01-19T15:53:00,pth,3.60
2023-01-19T15:55:00,pth,4.80
2023-01-19T15:56:00,pth,2.40
2023-01-19T15:58:00,pth,3.60
2023-01-19T15:59:00,pth,1.20
2023-01-19T16:01:00,pth,2.40
2023-01-19T16:03:00,pth,2.40
2023-01-19T16:04:00,pth,1.20
2023-01-19T16:06:00,pth,2.40
2023-01-19T16:07:00,pth,2.40
2023-01-19T16:09:00,pth,1.20
2023-01-19T16:11:00,pth,3.60
2023-01-19T16:12:00,pth,2.40
2023-01-19T16:14:00,pth,4.80
2023-01-19T16:16:00,pth,4.80
2023-01-19T16:18:00,pth,4.80
2023-01-19T16:20:00,pth,3.60
2023-01-19T16:21:00,pth,3.60
2023-01-19T16:23:00,pth,4.80
2023-01-19T16:24:00,pth,1.20
2023-01-19T16:26:00,pth,2.40
2023-01-19T16:28:00,pth,3.60
2023-01-19T16:30:00,pth,2.40
2023-01-19T16:31:00,pth,1.20
2023-01-19T16:33:00,pth,3.60
2023-01-19T16:35:00,pth,3.60
2023-01-19T16:36:00,pth,1.20
2023-01-19T16:38:00,pth,3.60
2023-01-19T16:40:00,pth,4.80
2023-01-19T16:41:00,pth,2.40
2023-01-19T16:43:00,pth,4.80
2023-01-19T16:44:00,pth,2.40
2023-01-19T16:46:00,pth,4.80
2023-01-19T16:48:00,pth,4.80
2023-01-19T16:49:00,pth,2.40
2023-01-19T16:51:00,pth,4.80
2023-01-19T16:52:00,pth,1.20
2023-01-19T16:54:00,pth,3.60
2023-01-19T16:56:00,pth,2.40
2023-01-19T16:58:00,pth,2.40
2023-01-19T17:00:00,pth,3.60
2023-01-19T17:02:00,pth,3.60
2023-01-19T17:03:00,pth,1.20
2023-01-19T17:05:00,pth,6.00
2023-01-19T17:06:00,pth,2.40
2023-01-19T17:08:00,pth,6.00
2023-01-19T17:09:00,pth,3.60
2023-01-19T17:10:00,pth,2.40
2023-01-19T17:12:00,pth,7.20
2023-01-19T17:14:00,pth,7.20
2023-01-19T17:15:00,pth,2.40
2023-01-19T17:17:00,pth,4.80
2023-01-19T17:18:00,pth,2.40
2023-01-19T17:20:00,pth,3.60
2023-01-19T17:22:00,pth,3.60
2023-01-19T17:23:00,pth,2.40
2023-01-19T17:24:00,pth,1.20
2023-01-19T17:26:00,pth,3.60
2023-01-19T17:28:00,pth,3.60
2023-01-19T17:30:00,pth,2.40
2023-01-19T17:31:00,pth,2.40
2023-01-19T17:32:00,pth,2.40
2023-01-19T17:34:00,pth,3.60
2023-01-19T17:35:00,pth,3.60
2023-01-19T17:37:00,pth,4.80
2023-01-19T17:39:00,pth,4.80
2023-01-19T17:40:00,pth,2.40
2023-01-19T17:42:00,pth,4.80
2023-01-19T17:44:00,pth,6.00
2023-01-19T17:46:00,pth,3.60
2023-01-19T17:47:00,pth,2.40
2023-01-19T17:49:00,pth,2.40
2023-01-19T17:50:00,pth,2.40
2023-01-19T17:52:00,pth,2.40
2023-01-19T17:53:00,pth,1.20
2023-01-19T17:55:00,pth,3.60
2023-01-19T17:57:00,pth,2.40
2023-01-19T17:58:00,pth,2.40
2023-01-19T18:00:00,pth,3.60
2023-01-19T18:02:00,pth,4.80
2023-01-19T18:03:00,pth,2.40
2023-01-19T18:05:00,pth,6.00
2023-01-19T18:06:00,pth,2.40
2023-01-19T18:08:00,pth,4.80
2023-01-19T18:10:00,pth,4.80
2023-01-19T18:12:00,pth,4.80
2023-01-19T18:13:00,pth,2.40
2023-01-19T18:15:00,pth,2.40
2023-01-19T18:17:00,pth,3.60
2023-01-19T18:19:00,pth,2.40
2023-01-19T18:21:00,pth,3.60
2023-01-19T18:23:00,pth,2.40
2023-01-19T18:25:00,pth,3.60
2023-01-19T18:26:00,pth,1.20
2023-01-19T18:28:00,pth,4.80
2023-01-19T18:30:00,pth,4.80
2023-01-19T18:32:00,pth,4.80
2023-01-19T18:34:00,pth,4.80
2023-01-19T18:35:00,pth,2.40
2023-01-19T18:37:00,pth,4.80
2023-01-19T18:39:00,pth,6.00
2023-01-19T18:41:00,pth,3.60
2023-01-19T18:42:00,pth,1.20
2023-01-19T18:44:00,pth,3.60
2023-01-19T18:46:00,pth,3.60
2023-01-19T18:47:00,pth,1.20
2023-01-19T18:49:00,pth,2.40
2023-01-19T18:51:00,pth,3.60
2023-01-19T18:52:00,pth,2.40
2023-01-19T18:54:00,pth,3.60
2023-01-19T18:55:00,pth,2.40
2023-01-19T18:57:00,pth,4.80
2023-01-19T18:59:00,pth,4.80
2023-01-19T19:00:00,pth,3.60
2023-01-19T19:02:00,pth,4.80
2023-01-19T19:03:00,pth,2.40
2023-01-19T19:05:00,pth,4.80
2023-01-19T19:07:00,pth,2.40
2023-01-19T19:08:00,pth,2.40
2023-01-19T19:10:00,pth,2.40
2023-01-19T19:11:00,pth,2.40
2023-01-19T19:13:00,pth,2.40
2023-01-19T19:15:00,pth,3.60
2023-01-19T19:17:00,pth,4.80
2023-01-19T19:19:00,pth,4.80
2023-01-19T19:21:00,pth,6.00
2023-01-19T19:22:00,pth,2.40
2023-01-19T19:24:00,pth,6.00
2023-01-19T19:26:00,pth,6.00
2023-01-19T19:27:00,pth,3.60
2023-01-19T19:29:00,pth,6.00
2023-01-19T19:31:00,pth,4.80
2023-01-19T19:33:00,pth,4.80
2023-01-19T19:35:00,pth,3.60
2023-01-19T19:36:00,pth,2.40
2023-01-19T19:38:00,pth,4.80
2023-01-19T19:39:00,pth,1.20
2023-01-19T19:41:00,pth,4.80
2023-01-19T19:43:00,pth,3.60
2023-01-19T19:45:00,pth,4.80
2023-01-19T19:46:00,pth,2.40
2023-01-19T19:48:00,pth,4.80
2023-01-19T19:49:00,pth,3.60
2023-01-19T19:51:00,pth,4.80
2023-01-19T19:52:00,pth,3.60
2023-01-19T19:54:00,pth,7.20
2023-01-19T19:56:00,pth,4.80
2023-01-19T19:58:00,pth,3.60
2023-01-19T20:00:00,pth,3.60
2023-01-19T20:02:00,pth,9.60
2023-01-19T20:03:00,pth,7.20
2023-01-19T20:05:00,pth,16.80
2023-01-19T20:07:00,pth,18.00
2023-01-19T20:08:00,pth,10.80
2023-01-19T20:09:00,pth,9.60
2023-01-19T20:11:00,pth,20.40
2023-01-19T20:13:00,pth,20.40
2023-01-19T20:15:00,pth,19.20
2023-01-19T20:16:00,pth,10.80
2023-01-19T20:18:00,pth,19.20
2023-01-19T20:20:00,pth,20.40
2023-01-19T20:21:00,pth,9.60
2023-01-19T20:23:00,pth,18.00
2023-01-19T20:25:00,pth,15.60
2023-01-19T20:26:00,pth,7.20
2023-01-19T20:27:00,pth,7.20
2023-01-19T20:29:00,pth,15.60
2023-01-19T20:31:00,pth,15.60
2023-01-19T20:32:00,pth,7.20
2023-01-19T20:34:00,pth,15.60
2023-01-19T20:36:00,pth,14.40
2023-01-19T20:38:00,pth,15.60
2023-01-19T20:39:00,pth,15.60
2023-01-19T20:40:00,pth,14.40
2023-01-19T20:41:00,pth,8.40
2023-01-19T20:43:00,pth,15.60
2023-01-19T20:45:00,pth,13.20
2023-01-19T20:47:00,pth,8.40
2023-01-19T20:49:00,pth,15.60
2023-01-19T20:50:00,pth,8.40
2023-01-19T20:52:00,pth,7.20
2023-01-19T20:53:00,pth,7.20
2023-01-19T20:54:00,pth,7.20
2023-01-19T20:56:00,pth,12.00
2023-01-19T20:57:00,pth,2.40
2023-01-19T20:58:00,pth,6.00
2023-01-19T21:00:00,pth,13.20
2023-01-19T21:01:00,pth,2.40
2023-01-19T21:02:00,pth,2.40
2023-01-19T21:04:00,pth,3.60
2023-01-19T21:06:00,pth,3.60
2023-01-19T21:07:00,pth,2.40
2023-01-19T21:09:00,pth,3.60
2023-01-19T21:11:00,pth,4.80
2023-01-19T21:12:00,pth,1.20
2023-01-19T21:14:00,pth,2.40
2023-01-19T21:16:00,pth,2.40
2023-01-19T21:18:00,pth,2.40
2023-01-19T21:20:00,pth,2.40
2023-01-19T21:22:00,pth,2.40
2023-01-19T21:24:00,pth,2.40
2023-01-19T21:25:00,pth,1.20
2023-01-19T21:27:00,pth,2.40
2023-01-19T21:29:00,pth,3.60
2023-01-19T21:30:00,pth,1.20
2023-01-19T21:32:00,pth,4.80
2023-01-19T21:34:00,pth,4.80
2023-01-19T21:36:00,pth,3.60
2023-01-19T21:38:00,pth,4.80
2023-01-19T21:39:00,pth,2.40
2023-01-19T21:40:00,pth,2.40
2023-01-19T21:42:00,pth,2.40
2023-01-19T21:44:00,pth,2.40
2023-01-19T21:45:00,pth,1.20
2023-01-19T21:47:00,pth,2.40
2023-01-19T21:48:00,pth,1.20
2023-01-19T21:49:00,pth,1.20
2023-01-19T21:51:00,pth,2.40
2023-01-19T21:52:00,pth,1.20
2023-01-19T21:53:00,pth,1.20
2023-01-19T21:55:00,pth,2.40
2023-01-19T21:57:00,pth,2.40
2023-01-19T21:58:00,pth,2.40
2023-01-19T22:00:00,pth,4.80
2023-01-19T22:02:00,pth,4.80
2023-01-19T22:04:00,pth,4.80
2023-01-19T22:06:00,pth,4.80
2023-01-19T22:07:00,pth,1.20
2023-01-19T22:09:00,pth,3.60
2023-01-19T22:11:00,pth,3.60
2023-01-19T22:12:00,pth,1.20
2023-01-19T22:14:00,pth,3.60
2023-01-19T22:15:00,pth,1.20
2023-01-19T22:16:00,pth,1.20
2023-01-19T22:17:00,pth,1.20
2023-01-19T22:19:00,pth,2.40
2023-01-19T22:21:00,pth,2.40
2023-01-19T22:23:00,pth,3.60
2023-01-19T22:24:00,pth,2.40
2023-01-19T22:26:00,pth,4.80
2023-01-19T22:28:00,pth,4.80
2023-01-19T22:29:00,pth,2.40
2023-01-19T22:31:00,pth,3.60
2023-01-19T22:33:00,pth,4.80
2023-01-19T22:35:00,pth,2.40
2023-01-19T22:37:00,pth,3.60
2023-01-19T22:39:00,pth,2.40
2023-01-19T22:40:00,pth,1.20
2023-01-19T22:42:00,pth,2.40